Orbital Elements at Epoch 2459200.5 (2020-Dec-17.0) TDB
Reference: JPL 15 (heliocentric ecliptic J2000)
Element | Value | Uncertainty (1-sigma) | Units |
e | .1783017189302538 | 4.6929e-08 | |
a | 2.625088300961219 | 1.042e-08 | au |
q | 2.157030544556134 | 1.265e-07 | au |
i | 13.03889980159114 | 7.3884e-06 | deg |
node | 349.8324521573083 | 1.5374e-05 | deg |
peri | 59.95527167452162 | 2.5367e-05 | deg |
M | 338.7620564171865 | 1.8391e-05 | deg |
tp | 2459292.148268359742 (2021-Mar-18.64826836) | 7.9502e-05 | TDB |
period | 1553.510888700472 4.25 | 9.2497e-06 2.532e-08 | d yr |
n | .2317331681538092 | 1.3798e-09 | deg/d |
Q | 3.093146057366304 | 1.2278e-08 | au |
|
| | Orbit Determination Parameters
Additional Information
|